TimeCDT,TemperatureF,Dew PointF,Humidity,Sea Level PressureIn,VisibilityMPH,Wind Direction,Wind SpeedMPH,Gust SpeedMPH,PrecipitationIn,Events,Conditions,WindDirDegrees,DateUTC
12:55 AM,48.6,42.6,80,30.20,10.0,NE,3.5,-,N/A,,Clear,40,2011-10-31 05:55:00
1:55 AM,47.7,41.4,79,30.19,10.0,Calm,Calm,-,N/A,,Clear,0,2011-10-31 06:55:00
2:55 AM,47.1,40.3,77,30.19,10.0,NNE,3.5,-,N/A,,Clear,20,2011-10-31 07:55:00
3:55 AM,45.9,39.6,79,30.19,10.0,Calm,Calm,-,N/A,,Clear,0,2011-10-31 08:55:00
4:55 AM,44.8,40.1,84,30.19,10.0,Calm,Calm,-,N/A,,Clear,0,2011-10-31 09:55:00
5:55 AM,45.0,39.6,81,30.19,10.0,North,4.6,-,N/A,,Clear,10,2011-10-31 10:55:00
6:55 AM,45.7,38.8,77,30.19,10.0,North,3.5,-,N/A,,Clear,10,2011-10-31 11:55:00
7:55 AM,46.9,38.8,73,30.20,10.0,Calm,Calm,-,N/A,,Clear,0,2011-10-31 12:55:00
8:55 AM,51.6,39.4,63,30.22,10.0,NNE,3.5,-,N/A,,Clear,30,2011-10-31 13:55:00
9:55 AM,57.9,38.7,49,30.22,10.0,NNE,5.8,-,N/A,,Clear,20,2011-10-31 14:55:00
10:55 AM,64.8,40.5,41,30.22,10.0,North,8.1,-,N/A,,Clear,360,2011-10-31 15:55:00
11:55 AM,67.5,41.2,38,30.21,10.0,North,9.2,-,N/A,,Clear,360,2011-10-31 16:55:00
12:55 PM,69.1,37.9,32,30.18,10.0,North,10.4,-,N/A,,Clear,350,2011-10-31 17:55:00
1:55 PM,70.9,37.2,29,30.14,10.0,NNE,11.5,-,N/A,,Clear,30,2011-10-31 18:55:00
2:55 PM,71.4,36.5,28,30.13,10.0,North,9.2,-,N/A,,Clear,10,2011-10-31 19:55:00
3:55 PM,72.1,37.4,28,30.13,10.0,North,10.4,-,N/A,,Clear,360,2011-10-31 20:55:00
4:55 PM,70.3,37.2,30,30.13,10.0,NNE,6.9,-,N/A,,Clear,30,2011-10-31 21:55:00
5:55 PM,67.1,41.0,39,30.14,10.0,North,4.6,-,N/A,,Clear,10,2011-10-31 22:55:00
6:55 PM,62.8,47.7,58,30.16,10.0,Calm,Calm,-,N/A,,Clear,0,2011-10-31 23:55:00
7:55 PM,59.5,49.5,69,30.18,10.0,Calm,Calm,-,N/A,,Clear,0,2011-11-01 00:55:00
8:55 PM,59.2,46.4,63,30.19,10.0,Calm,Calm,-,N/A,,Clear,0,2011-11-01 01:55:00
9:55 PM,56.8,47.1,70,30.21,10.0,NE,3.5,-,N/A,,Clear,40,2011-11-01 02:55:00
10:55 PM,56.1,50.7,82,30.21,10.0,North,3.5,-,N/A,,Clear,360,2011-11-01 03:55:00
11:55 PM,52.3,45.3,77,30.20,10.0,NE,3.5,-,N/A,,Clear,50,2011-11-01 04:55:00